Regional Weather Roundup
Issued by NWS Albany, NY

Home | Current Version | Previous Version | Text Only | Print | Product List | Glossary On
Versions: 1 2 3 4 5 6 7 8 9 10 11 12 13 14 15 16 17 18 19 20 21 22 23 24 25 26 27 28 29 30 31 32 33 34 35 36 37 38 39 40 41 42 43 44 45 46 47 48 49 50
000
ASUS41 KALY 020410
RWRALY

NEW YORK STATE HOURLY WEATHER ROUNDUP
NATIONAL WEATHER SERVICE ALBANY NY
1100 PM EST SUN MAR 01 2015

NOTE: "FAIR" INDICATES FEW OR NO CLOUDS BELOW 12,000 FEET WITH NO
SIGNIFICANT WEATHER AND/OR NO OBSTRUCTIONS TO VISIBILITY.

NYZ032-033-038>043-046>054-057>066-NYZ062>081-020500-
EAST


CITY           SKY/WX    TMP DP  RH WIND       PRES   REMARKS
ALBANY         LGT SNOW  24  19  81 S7        30.16F WCI  16
GLENS FALLS    CLOUDY    23  18  81 SW7       30.13F HAZE    WCI  15
POUGHKEEPSIE   LGT SNOW  25  21  85 CALM      30.18F FOG
NEWBURGH       LGT SNOW  23  21  93 CALM      30.17F FOG
MONTGOMERY     LGT SNOW  23  21  92 CALM      30.15F FOG
WHITE PLAINS   CLOUDY    25  21  85 NW5       30.15F FOG     WCI  19
ISLIP          FRZ RAIN  29  26  89 CALM      30.17F FOG
NEW YORK CITY  CLOUDY    28  25  86 CALM      30.17F FOG
CENTRAL PARK   CLOUDY    28  22  78 NW3       30.20F
$$

NYZ005>009-017-018-044>046-055-056-020500-
CENTRAL


CITY           SKY/WX    TMP DP  RH WIND       PRES   REMARKS
FULTON         LGT SNOW  25  21  85 S5        30.11F FOG     WCI  19
SYRACUSE       LGT SNOW  21  20  97 NW7       30.11F FOG     WCI  13
ROME           LGT SNOW  22  21  96 CALM      30.13F FOG
ELMIRA         CLOUDY    24  24 100 NE3       30.10F FOG
BINGHAMTON     CLOUDY    22  20  92 SW7       30.05F FOG     WCI  13
MONTICELLO     CLOUDY    19  18  93 CALM      30.10F
$$

NYZ026>034-041>043-020500-
NORTH


CITY           SKY/WX    TMP DP  RH WIND       PRES   REMARKS
WATERTOWN      CLOUDY    26  22  84 SW8       30.11S WCI  18
FORT DRUM      NOT AVBL
MASSENA        CLOUDY    25  23  92 SW8       30.10F FOG     WCI  16
SARANAC LAKE   LGT SNOW  20  18  92 SW8       29.98F FOG     WCI  10
PLATTSBURGH    CLOUDY    23  20  88 S5        30.08F WCI  17
$$

NYZ001>004-010>016-019>021-020500-
WEST


CITY           SKY/WX    TMP DP  RH WIND       PRES   REMARKS
NIAGARA FALLS  FLURRIES  22  19  89 SW10      30.14S WCI  11
BUFFALO        FLURRIES  22  19  89 SW13      30.13F WCI  10
DUNKIRK        CLOUDY    22  20  92 SW10      30.17S WCI  11
JAMESTOWN      CLOUDY    21  19  93 SW12      30.10R WCI   9
WELLSVILLE     CLOUDY    28  23  81 W8        30.04F WCI  20
ROCHESTER      LGT SNOW  25  21  85 W12       30.12F FOG     WCI  14
PENN YAN       CLOUDY    25  22  88 CALM      30.09F FOG
$$

             KEY
       WCI = WIND CHILL INDEX
       VSB = VISIBILITY
       HX  = HEAT INDEX
$$


USA.gov is the U.S. government's official web portal to all federal, state and local government web resources and services.